Location: *
(28.2408°N, 53.4600°E)
Time: 23:06:26
(UTC+00:00)

Mugunghwa Rocket - Pass Details

Date: 22 September 2019
Orbit: 936 x 1372 km, 26.7° (Epoch: 20 October)

Event Time Altitude Azimuth Distance (km) Brightness Sun altitude
Rises 15:40:53 0° 259° (W) 3,628 8.3 -17.8°
Reaches altitude 10° 15:43:33 10° 257° (WSW) 2,655 7.3 -18.4°
Maximum altitude 15:49:51 74° 174° (S) 968 3.9 -19.8°
Enters shadow 15:52:29 37° 97° (E) 1,420 4.3 -20.3°
